Flag for Switzerland Weather past 2 weeks in Langenthal, Bern, Switzerland

Now
52 °F

Cool.


Feels Like: 48 °F
Forecast: 39 / 69 °F
Wind: 10 mph from East

Location: Wynau

Current Time: Apr 21, 2015 at 9:48:31 AM

Latest Report: Apr 21, 2015 at 9:00 AM


Visibility: N/A

Pressure: 30.34 "Hg

Humidity: 60%

Dew point: 38 °F

Location of LangenthalLocation

Historic Weather in Langenthal — Graph

°F

Langenthal temperature yesterday

Maximum temperature yesterday: 65 °F (at 5:00 PM)
Minimum temperature yesterday: 34 °F (at 7:00 AM)
Average temperature yesterday: 49 °F

Past Weeks' High & Low Weather Summary

 TemperatureHumidityPressure
High73 °F (Apr 15, 5:00 PM)100% (Apr 10, 8:00 AM)30.60 "Hg (Apr 10, 8:00 AM)
Low27 °F (Apr 8, 7:00 AM)21% (Apr 8, 6:00 PM)29.94 "Hg (Apr 17, 5:00 PM)
Average50 °F66%30.27 "Hg
* Reported Apr 6 8:00 AM — Apr 21 8:00 AM, Langenthal, Weather by CustomWeather, © 2015

Note: Actual official high and low records may vary slightly from our data, if they occured in-between our weather recording intervals... More about our weather records

Advertising

Langenthal weather history for previous 24 hours

 ConditionsComfort  
Time TempWeatherWind HumidityBarometerVisibility
8:00 AM
Tue, Apr 21
42 °FQuite cool.6 mph86%30.37 "HgN/A
7:00 AM36 °FChilly.2 mph93%30.37 "HgN/A
6:00 AM37 °FChilly.1 mph95%30.34 "HgN/A
4:00 AM40 °FChilly.No wind85%30.33 "HgN/A
3:00 AM41 °FQuite cool.1 mph80%30.32 "HgN/A
2:00 AM42 °FQuite cool.No wind83%30.32 "HgN/A
1:00 AM41 °FQuite cool.2 mph89%30.33 "HgN/A
12:00 AM43 °FQuite cool.1 mph83%30.32 "HgN/A
10:00 PM
Mon, Apr 20
48 °FCool.No wind59%30.27 "HgN/A
9:00 PM52 °FCool.No wind54%30.24 "HgN/A
8:00 PM60 °FRefreshingly cool.5 mph33%30.19 "HgN/A
7:00 PM62 °FMild.7 mph35%30.16 "HgN/A
6:00 PM65 °FMild.8 mph31%30.15 "HgN/A
5:00 PM65 °FMild.12 mph29%30.15 "HgN/A
4:00 PM63 °FMild.10 mph33%30.17 "HgN/A
3:00 PM63 °FMild.10 mph29%30.17 "HgN/A
2:00 PM62 °FRefreshingly cool.12 mph35%30.18 "HgN/A
1:00 PM60 °FRefreshingly cool.12 mph38%30.19 "HgN/A
12:00 PM57 °FRefreshingly cool.9 mph45%30.21 "HgN/A
10:00 AM52 °FCool.9 mph57%30.21 "HgN/A
9:00 AM47 °FCool.7 mph66%30.23 "HgN/A
Weather by CustomWeather, © 2015

See weather overviewHow to use our weather pages